Precipitable_Water
1.20 1.14 1.03 0.89 0.50 0.47 0.48 0.54 0.59 0.71 0.67 0.78 0.81 0.91 0.90 0.97 0.80 0.85 1.29 1.29 1.33 1.39 1.40 1.41 1.38 1.42 1.40 1.41 1.38 1.33 1.27 1.20 1.16 1.14 1.28 1.17 1.04 1.04 0.91 0.80 0.85 0.97 1.01 1.03 1.05 1.06 1.04 0.97 0.91
1.26 1.01 0.93 0.77 0.47 0.35 0.41 0.58 0.54 0.66 0.71 0.83 0.88 0.94 0.95 1.02 1.19 1.21 1.22 1.36 1.36 1.39 1.41 1.43 1.45 1.45 1.41 1.38 1.33 1.30 1.23 1.09 1.10 1.12 1.25 1.28 1.18 1.10 0.95 0.80 0.82 0.87 0.93 0.98 1.01 0.98 0.98 0.96 0.91
1.13 1.00 0.74 0.60 0.50 0.35 0.37 0.54 0.55 0.66 0.85 0.78 0.80 1.01 1.05 1.17 1.29 1.30 1.39 1.40 1.43 1.41 1.47 1.51 1.49 1.44 1.41 1.40 1.37 1.28 1.15 1.06 1.07 1.10 1.19 1.34 1.25 1.16 1.01 0.83 0.81 0.81 0.85 0.94 0.98 0.98 0.98 0.93 0.93
0.96 0.85 0.77 0.55 0.46 0.43 0.45 0.54 0.57 0.64 0.71 0.84 0.85 0.86 1.19 1.51 1.42 1.55 1.44 1.43 1.45 1.44 1.52 1.51 1.47 1.44 1.40 1.37 1.37 1.33 1.16 1.05 1.00 1.08 1.17 1.36 1.30 1.18 1.05 0.88 0.86 0.83 0.83 0.85 0.89 0.93 0.93 0.94 0.95
0.99 0.76 0.52 0.48 0.50 0.52 0.52 0.66 0.65 0.58 0.61 0.78 0.84 0.99 1.12 1.40 1.60 1.64 1.46 1.46 1.46 1.48 1.64 1.54 1.54 1.51 1.43 1.40 1.35 1.27 1.18 1.02 1.08 1.21 1.24 1.39 1.32 1.20 1.12 0.97 0.96 0.95 0.92 0.92 0.94 0.95 0.98 0.98 0.96
0.71 0.71 0.48 0.41 0.47 0.56 0.62 0.66 0.58 0.57 0.61 0.75 0.88 0.96 1.19 1.50 1.52 1.59 1.55 1.50 1.54 1.52 1.59 1.54 1.60 1.54 1.47 1.43 1.38 1.28 1.20 0.98 1.27 1.35 1.35 1.43 1.29 1.16 1.13 1.03 0.99 1.01 1.01 0.98 0.96 0.98 1.01 1.01 0.98
0.68 0.59 0.46 0.46 0.49 0.56 0.64 0.74 0.57 0.54 0.58 0.71 0.94 0.91 1.25 1.36 1.56 1.66 1.55 1.58 1.55 1.64 1.55 1.59 1.67 1.64 1.56 1.49 1.41 1.32 1.20 1.00 1.27 1.42 1.49 1.36 1.24 1.20 1.16 1.06 0.98 1.00 0.97 0.96 0.97 0.99 1.00 1.01 0.98
0.77 0.67 0.53 0.52 0.49 0.58 0.72 0.73 0.71 0.57 0.60 0.94 0.99 0.92 1.10 1.31 1.59 1.63 1.63 1.55 1.55 1.61 1.64 1.63 1.61 1.60 1.55 1.52 1.45 1.34 1.28 1.08 1.18 1.30 1.29 1.23 1.19 1.18 1.15 1.09 1.02 1.06 1.00 0.96 0.95 0.95 0.96 0.94 0.92
0.91 0.62 0.52 0.53 0.53 0.63 0.77 0.65 0.75 0.76 0.70 0.75 0.82 0.88 1.04 1.47 1.58 1.52 1.52 1.47 1.51 1.59 1.59 1.64 1.54 1.51 1.54 1.54 1.47 1.41 1.34 1.22 1.10 1.15 1.20 1.17 1.18 1.11 1.13 1.16 1.05 1.05 1.02 0.99 0.96 0.94 0.92 0.89 0.87
0.73 0.58 0.56 0.71 0.69 0.69 0.73 0.71 0.70 0.70 0.68 0.67 0.69 0.87 1.17 1.35 1.47 1.45 1.40 1.36 1.35 1.49 1.56 1.62 1.60 1.50 1.58 1.58 1.48 1.43 1.35 1.34 1.24 1.12 1.01 1.10 1.14 1.13 1.16 1.12 1.03 1.02 1.06 1.02 0.97 0.93 0.88 0.85 0.87
0.72 0.55 0.66 0.74 0.80 0.80 0.74 0.73 0.75 0.73 0.69 0.72 0.64 0.75 1.05 1.19 1.33 1.35 1.37 1.42 1.39 1.44 1.54 1.54 1.59 1.52 1.58 1.57 1.49 1.44 1.35 1.36 1.37 1.32 1.18 1.08 1.05 1.06 1.01 1.06 0.99 1.00 1.03 1.11 1.08 1.06 1.01 0.96 0.94
0.67 0.65 0.73 0.78 0.83 0.75 0.73 0.77 0.75 0.77 0.81 0.82 0.79 0.79 0.92 1.08 1.20 1.31 1.36 1.36 1.39 1.39 1.39 1.39 1.50 1.52 1.54 1.58 1.45 1.43 1.33 1.30 1.32 1.35 1.31 1.17 1.03 1.00 1.01 1.00 0.99 1.00 1.08 1.09 1.11 1.10 1.13 1.12 1.10
0.68 0.66 0.73 0.80 0.77 0.79 0.83 0.74 0.75 0.77 0.86 0.89 0.82 0.83 0.80 0.97 1.12 1.26 1.42 1.48 1.49 1.42 1.45 1.47 1.53 1.49 1.50 1.55 1.49 1.42 1.39 1.30 1.29 1.33 1.33 1.27 1.16 1.08 1.01 0.95 0.94 0.95 1.00 1.04 1.09 1.18 1.17 1.15 1.14
0.75 0.74 0.72 0.78 0.79 0.77 0.73 0.76 0.78 0.77 0.86 0.85 0.84 0.82 0.82 0.86 1.05 1.15 1.25 1.32 1.42 1.50 1.50 1.56 1.52 1.52 1.49 1.45 1.45 1.41 1.41 1.35 1.29 1.31 1.33 1.32 1.26 1.16 1.08 1.07 1.01 0.98 1.04 1.14 1.15 1.17 1.17 1.14 1.13
0.69 0.57 0.71 0.67 0.69 0.68 0.73 0.65 0.64 0.81 0.86 0.81 0.83 0.83 0.83 0.87 0.91 1.12 1.20 1.24 1.34 1.43 1.52 1.54 1.54 1.55 1.54 1.47 1.43 1.37 1.37 1.34 1.29 1.32 1.36 1.26 1.22 1.19 1.15 1.17 1.17 1.17 1.14 1.14 1.15 1.16 1.15 1.11 1.13
0.59 0.64 0.50 0.60 0.67 0.70 0.61 0.45 0.63 0.81 0.84 0.80 0.83 0.82 0.85 0.86 0.89 0.93 1.09 1.24 1.29 1.37 1.36 1.42 1.49 1.42 1.36 1.31 1.28 1.26 1.28 1.29 1.33 1.37 1.31 1.25 1.21 1.25 1.25 1.22 1.22 1.24 1.22 1.17 1.15 1.13 1.10 1.09 1.12
0.49 0.44 0.49 0.52 0.65 0.63 0.54 0.46 0.66 0.74 0.74 0.75 0.79 0.81 0.83 0.86 0.90 0.94 0.94 1.18 1.27 1.35 1.35 1.36 1.42 1.45 1.43 1.38 1.31 1.27 1.28 1.33 1.32 1.34 1.35 1.34 1.31 1.28 1.26 1.26 1.27 1.29 1.24 1.19 1.17 1.14 1.15 1.12 1.16
0.35 0.33 0.41 0.44 0.57 0.60 0.54 0.52 0.63 0.72 0.74 0.71 0.77 0.80 0.81 0.82 0.87 0.95 0.95 0.98 1.29 1.35 1.37 1.37 1.43 1.48 1.51 1.54 1.47 1.38 1.33 1.33 1.37 1.37 1.39 1.40 1.38 1.38 1.36 1.34 1.30 1.28 1.25 1.21 1.22 1.21 1.26 1.25 1.20
0.36 0.30 0.39 0.47 0.61 0.58 0.53 0.58 0.63 0.69 0.67 0.68 0.73 0.77 0.78 0.80 0.88 0.95 0.98 0.93 0.99 1.33 1.35 1.35 1.35 1.42 1.45 1.46 1.40 1.33 1.28 1.34 1.38 1.41 1.42 1.42 1.41 1.40 1.34 1.29 1.26 1.28 1.23 1.21 1.19 1.17 1.13 1.12 1.17
0.36 0.30 0.38 0.52 0.62 0.59 0.56 0.59 0.65 0.67 0.66 0.64 0.67 0.71 0.74 0.79 0.83 0.92 0.91 0.93 0.95 1.07 1.32 1.36 1.37 1.39 1.40 1.45 1.46 1.46 1.47 1.46 1.49 1.50 1.47 1.44 1.39 1.37 1.34 1.30 1.28 1.28 1.25 1.22 1.21 1.18 1.17 1.20 1.27
0.40 0.32 0.36 0.42 0.51 0.57 0.55 0.51 0.55 0.62 0.67 0.65 0.67 0.71 0.75 0.76 0.81 0.89 0.90 0.88 0.92 0.96 1.15 1.35 1.39 1.39 1.42 1.47 1.47 1.46 1.44 1.37 1.30 1.31 1.30 1.32 1.23 1.24 1.26 1.27 1.25 1.21 1.20 1.11 1.11 1.15 1.13 1.02 1.08
0.33 0.42 0.45 0.42 0.39 0.31 0.45 0.31 0.42 0.49 0.55 0.57 0.60 0.65 0.70 0.75 0.84 0.89 0.89 0.86 0.88 0.92 1.00 1.14 1.23 1.24 1.25 1.31 1.28 1.22 1.18 1.16 1.23 1.16 1.10 1.09 1.05 0.99 0.95 0.89 0.85 0.83 0.89 0.89 0.88 0.92 0.93 0.93 0.82
0.38 0.43 0.42 0.39 0.36 0.30 0.35 0.31 0.31 0.43 0.41 0.49 0.58 0.57 0.65 0.72 0.81 0.89 0.90 0.87 0.89 0.92 0.92 0.95 0.99 1.03 1.09 1.14 1.18 1.17 1.13 1.07 1.02 0.98 0.91 0.86 0.83 0.82 0.80 0.79 0.79 0.77 0.74 0.71 0.72 0.76 0.77 0.80 0.74
0.49 0.39 0.39 0.37 0.33 0.23 0.28 0.26 0.23 0.29 0.36 0.38 0.47 0.53 0.58 0.67 0.70 0.85 0.96 0.91 0.88 0.93 0.94 0.95 0.94 0.95 0.99 1.00 1.00 0.99 0.93 0.89 0.84 0.82 0.81 0.79 0.77 0.76 0.76 0.74 0.71 0.74 0.74 0.75 0.77 0.77 0.75 0.75 0.77
0.44 0.36 0.26 0.23 0.24 0.21 0.29 0.25 0.26 0.34 0.35 0.37 0.39 0.44 0.48 0.59 0.64 0.71 0.78 0.87 0.88 0.91 0.91 0.90 0.89 0.89 0.94 0.92 0.93 0.89 0.87 0.84 0.82 0.81 0.78 0.77 0.75 0.74 0.75 0.77 0.73 0.74 0.78 0.80 0.78 0.77 0.76 0.77 0.77
0.39 0.35 0.25 0.18 0.18 0.21 0.30 0.21 0.24 0.32 0.33 0.35 0.39 0.42 0.44 0.47 0.53 0.67 0.78 0.82 0.88 0.91 0.92 0.90 0.87 0.88 0.93 0.94 0.90 0.89 0.85 0.82 0.80 0.80 0.78 0.76 0.74 0.75 0.78 0.76 0.75 0.74 0.76 0.78 0.82 0.84 0.83 0.85 0.85
0.39 0.34 0.40 0.30 0.28 0.23 0.25 0.24 0.27 0.29 0.29 0.30 0.30 0.34 0.37 0.43 0.48 0.54 0.69 0.84 0.89 0.93 0.94 0.93 0.90 0.87 0.87 0.87 0.87 0.84 0.83 0.82 0.80 0.79 0.79 0.78 0.79 0.77 0.76 0.78 0.77 0.76 0.77 0.78 0.80 0.80 0.82 0.85 0.86
0.46 0.47 0.31 0.30 0.18 0.14 0.19 0.18 0.19 0.23 0.27 0.29 0.32 0.33 0.37 0.40 0.44 0.49 0.56 0.65 0.80 0.87 0.93 0.99 0.96 0.91 0.89 0.88 0.86 0.84 0.83 0.83 0.82 0.79 0.75 0.75 0.76 0.76 0.76 0.78 0.78 0.77 0.76 0.76 0.77 0.78 0.81 0.80 0.81
0.42 0.38 0.38 0.35 0.27 0.20 0.15 0.17 0.26 0.26 0.29 0.30 0.34 0.37 0.38 0.40 0.43 0.47 0.50 0.54 0.61 0.70 0.81 0.85 0.88 0.87 0.91 0.91 0.86 0.83 0.82 0.81 0.78 0.73 0.71 0.71 0.72 0.73 0.73 0.75 0.76 0.76 0.75 0.75 0.77 0.77 0.77 0.75 0.73
0.46 0.38 0.37 0.26 0.24 0.23 0.22 0.21 0.29 0.30 0.31 0.33 0.35 0.38 0.41 0.42 0.43 0.46 0.49 0.53 0.55 0.59 0.62 0.71 0.77 0.79 0.81 0.79 0.78 0.78 0.76 0.74 0.72 0.71 0.70 0.69 0.68 0.69 0.69 0.72 0.74 0.75 0.75 0.75 0.75 0.73 0.74 0.71 0.69
Wind_Speed
31 30 29 27 26 27 29 25 19 26 21 20 18 16 14 13 17 10 16 13 15 13 13 12 11 10 9 9 8 7 7 6 6 6 7 7 7 7 7 7 7 6 6 5 5 5 6 6 6
31 30 29 29 28 30 29 28 25 27 23 20 20 19 17 13 11 12 17 17 16 15 14 12 11 10 10 9 8 8 7 6 6 6 6 6 6 6 7 7 7 6 6 6 6 6 6 6 6
32 32 30 29 31 32 29 29 24 21 26 20 20 20 16 14 13 16 17 19 18 15 14 13 12 11 10 10 9 8 7 6 6 6 6 6 6 6 6 7 7 6 6 6 6 6 6 6 6
32 32 30 32 36 34 27 26 26 23 23 25 20 20 18 15 17 15 20 20 18 16 15 14 12 11 10 9 8 7 6 6 6 6 6 5 5 5 5 6 6 6 6 6 5 5 5 6 6
34 33 32 34 39 33 28 23 25 26 22 27 21 19 18 17 17 19 22 22 20 18 16 15 13 12 11 10 8 7 6 5 6 6 5 5 4 4 4 5 5 5 5 4 4 4 5 5 5
34 34 34 35 37 36 30 27 23 24 24 22 25 20 19 18 18 20 23 23 21 19 17 16 14 12 11 10 9 7 6 6 6 5 5 4 4 3 2 2 2 3 3 3 3 3 4 4 5
37 35 37 35 35 32 31 29 26 25 25 23 21 25 21 20 20 22 24 23 22 20 18 17 16 14 12 11 10 8 6 6 6 5 4 3 2 1 0 1 1 1 2 2 3 3 4 5 6
36 32 36 34 33 30 31 29 26 24 25 23 23 23 23 21 22 23 24 24 23 21 20 19 17 16 14 13 12 10 8 7 7 6 5 4 3 2 3 3 3 3 3 4 4 5 6 7 8
34 32 36 33 33 31 30 30 27 25 24 24 24 22 21 23 23 24 24 25 24 23 21 20 19 18 16 15 14 12 10 9 8 8 8 7 6 6 6 5 6 6 6 6 7 7 8 9 10
37 32 37 32 27 30 29 30 29 26 25 24 23 23 23 24 25 25 26 26 26 24 23 21 20 19 18 17 16 14 13 12 11 10 10 9 9 8 8 8 8 8 8 9 9 10 10 11 12
35 40 28 31 28 27 27 28 27 28 25 23 23 22 25 26 25 26 26 27 27 26 24 23 22 20 19 19 18 16 15 14 13 12 11 11 11 11 11 10 10 11 11 11 11 12 12 13 14
35 38 31 27 24 31 27 29 27 26 26 24 22 22 25 27 28 26 26 26 26 26 25 24 23 22 21 20 20 19 17 16 15 14 14 13 13 12 12 12 12 12 12 13 13 13 14 15 15
30 37 35 31 25 26 28 27 30 29 27 26 24 23 22 27 28 28 27 26 25 26 26 25 24 23 23 22 21 20 19 18 17 16 15 14 14 14 14 13 13 14 14 14 14 15 15 16 17
33 30 36 31 29 24 26 28 28 32 29 27 25 25 23 24 27 29 29 28 27 26 26 25 25 25 24 24 23 22 22 20 19 18 17 16 15 15 15 15 15 15 15 16 16 17 17 18 18
37 33 32 35 32 27 25 28 37 36 32 29 28 27 27 25 26 28 30 30 29 28 27 27 26 26 25 25 25 24 23 22 20 19 18 17 17 16 16 16 16 16 17 17 18 18 19 20 21
29 28 30 33 32 32 27 31 34 36 37 36 32 29 28 28 27 27 28 29 30 29 29 28 27 26 27 26 25 25 24 22 21 20 19 19 19 18 18 18 18 18 18 19 20 20 21 22 23
32 27 27 27 32 27 30 27 26 33 41 41 36 33 30 29 30 29 28 29 30 29 28 28 27 26 25 25 25 24 23 22 22 21 20 20 20 20 20 20 20 21 21 21 22 23 24 24 25
34 29 25 24 28 29 28 28 24 27 33 41 41 36 34 32 31 31 29 30 31 30 30 29 27 27 26 25 24 24 24 24 23 23 22 22 22 22 22 23 23 23 23 24 25 25 26 26 27
31 31 25 23 22 28 24 26 27 24 28 32 42 42 36 35 32 30 31 30 30 31 31 30 29 29 28 27 25 26 26 26 25 25 24 24 24 24 24 25 25 25 26 26 27 28 29 29 29
29 31 23 20 19 24 23 24 25 25 27 29 30 41 42 37 36 33 31 30 31 32 32 32 31 31 30 29 28 26 26 26 26 26 26 26 26 26 26 26 27 28 29 29 30 30 31 30 30
24 29 25 21 20 19 18 20 25 26 27 25 29 27 37 39 39 36 34 32 31 32 32 32 32 32 31 30 29 28 27 25 27 27 27 27 28 28 29 29 30 30 31 32 32 33 33 32 31
25 24 21 19 20 17 20 14 23 23 26 27 27 28 27 32 40 38 36 34 33 32 32 32 32 32 31 31 30 30 29 30 29 28 28 30 30 30 31 31 31 32 32 32 32 32 32 32 31
18 21 20 19 20 16 18 16 17 16 20 25 27 27 28 28 31 36 36 36 34 33 33 32 32 32 32 32 32 32 32 31 31 31 31 32 32 32 32 33 33 33 33 33 32 32 31 31 31
19 20 18 17 17 18 21 19 17 15 15 19 22 26 28 29 28 32 37 37 36 34 33 34 33 32 32 31 32 33 33 32 32 33 34 34 33 33 34 34 34 34 33 33 32 31 31 31 31
19 22 15 15 14 14 10 17 17 13 15 16 17 21 23 26 29 29 33 38 38 36 34 33 33 33 32 32 31 31 31 32 33 33 33 34 35 35 35 35 34 34 34 33 32 32 32 31 31
20 21 13 13 15 16 12 14 13 10 11 15 17 20 22 24 25 27 29 34 37 37 37 35 34 34 34 33 32 31 31 31 31 32 32 33 33 33 33 33 33 32 32 32 31 30 29 29 29
20 20 12 11 9 9 12 13 13 11 10 10 11 14 17 21 23 25 27 30 33 36 37 37 36 35 33 32 32 31 31 31 31 32 33 33 33 32 32 32 32 32 31 31 29 28 28 27 27
16 16 13 11 11 10 9 11 8 10 9 7 7 7 10 15 20 23 24 26 29 30 31 37 40 36 35 34 33 33 32 32 33 33 33 33 33 33 33 32 32 31 30 29 29 28 28 28 28
14 14 13 11 9 8 8 6 4 7 6 7 7 8 10 12 16 20 23 25 27 29 30 30 31 32 34 37 35 34 33 33 33 33 33 33 33 33 33 33 32 31 30 29 29 28 28 27 27
14 17 18 14 12 12 10 8 7 10 9 9 10 10 13 14 15 18 20 23 26 28 28 30 31 31 31 31 31 32 32 33 33 33 33 33 33 32 32 33 33 32 31 30 30 29 29 28 27
Wind_Direction
213 212 210 210 213 214 215 213 211 206 207 207 207 206 204 203 203 213 184 184 174 171 166 164 162 159 155 151 146 139 130 121 118 116 114 105 93 82 78 79 83 87 88 88 83 75 65 55 50
211 209 209 212 216 212 214 209 209 208 208 207 205 206 203 191 196 193 184 183 176 171 168 165 162 157 153 148 144 138 131 124 123 121 119 112 97 85 78 79 82 84 86 85 83 75 66 58 53
211 209 210 212 215 215 212 208 207 206 207 209 205 204 205 201 196 186 185 181 178 175 172 167 164 160 156 151 144 137 133 128 130 127 126 116 101 88 80 79 80 81 83 84 81 74 64 55 48
208 209 214 215 212 213 213 209 207 208 206 207 207 202 202 203 201 199 188 184 182 180 177 174 171 168 164 160 155 146 135 130 134 132 129 119 110 91 82 81 80 79 81 81 77 69 59 50 44
209 210 215 217 215 211 212 206 210 211 204 204 205 202 203 204 205 198 191 189 187 186 184 182 179 176 173 169 163 157 148 140 137 134 135 125 116 98 84 81 80 77 75 74 68 57 47 37 28
208 211 214 215 214 211 210 211 210 213 207 205 211 207 206 208 202 196 194 193 193 192 191 190 189 187 184 181 177 171 166 162 154 144 148 138 125 102 78 74 71 65 59 49 37 23 13 5 359
210 211 216 215 212 207 210 213 214 211 209 208 211 210 208 207 205 202 197 196 197 196 196 196 196 195 193 192 191 189 186 184 181 169 158 161 158 144 51 26 19 3 354 347 341 337 335 334 334
211 214 218 216 214 210 209 210 213 214 210 211 214 210 207 209 206 201 201 199 200 201 202 203 204 205 204 204 203 203 205 205 206 208 209 219 247 265 272 285 288 296 305 310 315 316 317 319 321
207 211 215 216 213 209 210 211 211 215 212 212 212 215 215 209 204 203 202 202 203 206 208 209 210 211 211 212 212 214 217 220 223 228 234 243 259 266 272 278 279 282 289 295 300 304 307 310 313
208 212 208 211 212 208 209 210 209 211 208 207 210 213 211 207 205 204 204 207 207 206 210 212 214 216 215 218 219 222 225 230 233 238 243 250 258 266 273 276 277 279 284 288 292 296 300 304 306
207 210 207 207 210 208 210 207 209 208 209 210 210 214 211 209 207 207 208 209 210 210 213 216 218 220 220 223 223 227 231 235 239 243 247 253 258 265 269 274 275 276 281 283 288 292 296 299 303
208 208 208 204 208 211 210 209 208 211 207 211 213 216 213 212 211 210 211 212 213 215 217 219 221 224 226 227 229 231 234 237 242 245 249 254 259 264 268 273 275 276 278 282 285 290 293 296 299
214 206 205 200 210 208 212 214 216 216 212 216 219 217 215 214 213 214 215 217 218 217 219 221 224 226 229 230 231 232 236 239 243 245 248 254 259 264 268 271 274 275 278 281 284 288 291 294 297
208 207 207 209 213 213 215 220 222 216 220 218 220 219 217 215 216 216 218 220 221 222 222 224 226 229 231 233 235 235 237 241 244 245 249 253 259 264 269 272 274 275 277 281 284 287 290 293 295
205 210 213 215 215 221 222 230 225 222 224 222 222 223 222 220 218 220 220 221 223 225 225 227 229 232 233 234 235 235 237 240 243 245 248 253 258 264 268 272 275 276 278 281 284 287 289 291 293
197 207 210 214 215 222 217 230 229 227 228 227 225 226 225 225 222 223 223 223 225 227 228 230 232 234 234 234 234 236 237 239 240 244 250 254 259 263 268 272 275 276 278 281 284 286 288 290 293
197 201 211 201 211 215 217 229 229 228 226 226 226 228 227 225 226 225 226 226 227 228 228 229 231 232 231 232 232 233 234 236 240 246 251 256 261 265 269 272 275 277 279 281 284 286 287 290 291
200 209 204 202 209 214 219 226 229 228 229 226 227 229 229 228 227 228 229 228 228 228 228 229 229 230 230 231 232 233 235 239 243 249 254 259 263 266 269 272 275 277 279 282 284 285 287 289 291
204 207 204 206 209 210 221 223 230 229 226 226 228 228 229 229 229 228 229 231 230 229 228 229 230 231 232 233 236 238 240 242 247 251 256 260 264 267 270 273 275 277 279 282 284 286 287 288 290
201 199 199 200 204 210 220 223 230 230 231 229 230 228 231 232 233 229 229 230 231 231 230 230 231 233 234 236 238 243 245 247 249 253 258 262 266 268 270 273 275 278 280 282 284 286 287 288 289
195 198 198 201 203 214 218 234 235 233 232 229 228 233 231 233 232 229 229 230 232 232 232 232 232 233 234 237 240 243 246 250 252 256 260 263 267 269 272 274 275 278 279 281 283 285 285 286 287
192 199 198 199 202 219 217 234 218 226 226 230 229 231 233 235 231 230 230 230 232 232 232 233 233 234 236 238 242 244 248 251 255 258 263 266 268 270 272 274 276 278 280 282 283 284 284 285 286
189 195 199 205 214 225 214 233 241 217 229 231 229 233 234 234 234 230 230 230 231 232 232 232 234 235 239 242 244 248 251 254 258 261 264 267 269 271 273 275 277 279 280 281 283 284 284 284 285
187 188 196 208 218 228 233 228 243 232 234 236 238 235 235 235 236 235 233 231 231 231 233 233 235 238 240 244 247 251 252 254 258 262 266 267 270 272 274 276 277 278 279 280 282 282 283 284 284
184 181 193 206 216 226 229 229 239 236 241 240 240 237 239 239 238 238 236 231 231 232 234 236 236 238 242 244 249 250 253 257 260 263 266 268 270 272 274 275 276 277 278 279 280 281 282 282 283
197 194 199 210 214 215 216 232 237 240 245 246 244 243 241 240 242 240 238 232 231 233 235 237 239 242 244 247 246 250 253 258 261 264 267 268 270 272 274 275 276 276 277 278 280 280 281 283 284
202 213 214 218 213 216 216 231 251 237 241 241 246 247 245 242 242 239 241 235 233 235 238 239 241 242 243 245 248 251 255 259 263 266 268 269 270 271 273 274 276 277 277 277 277 278 280 283 285
201 190 201 211 208 223 217 242 238 223 224 228 234 246 252 248 245 243 241 239 237 237 239 239 239 241 243 245 248 253 256 261 265 267 268 269 270 271 272 273 274 275 275 275 276 277 280 282 283
198 202 210 210 223 234 228 205 243 203 219 228 238 257 270 267 257 250 245 243 241 240 239 238 236 240 244 246 250 254 258 262 265 267 268 269 270 271 271 272 272 272 274 274 274 276 279 280 282
222 217 215 221 220 230 242 241 238 222 240 243 252 270 280 273 270 259 251 246 243 242 241 240 239 240 243 246 249 252 258 261 264 266 268 270 270 271 271 271 271 271 271 272 273 275 276 278 280